{"data":{"norad_id":43079,"intl_designator":"2017-083K","name":"IRIDIUM 131","alt_names":[],"object_type":"PAYLOAD","status":"ACTIVE","operator":null,"country":"US","launch_date":"2017-12-23","launch_site_code":"AFWTR","launch_vehicle":null,"mission":null,"orbit_class":"UNKNOWN","rcs_meters":null,"size_class":null,"mass_kg":null,"dimensions":null,"purposes":["comms"],"wikipedia_slug":null,"has_3d_model":false,"image_url":null,"decayed_at":null,"tle_current":{"epoch":"2026-05-25T00:38:07.165248Z","epoch_age_seconds":66727,"freshness":"FRESH","line1":"1 43079U 17083K   26145.02647182  .00000060  00000+0  14338-4 0  9998","line2":"2 43079  86.3961 331.8624 0002167  90.8295 269.3149 14.34217907440789","mean_motion":14.34217907,"eccentricity":0.0002167,"inclination_deg":86.3961,"raan_deg":331.8624,"arg_perigee_deg":90.8295,"mean_anomaly_deg":269.3149,"bstar":1.4338e-5,"rev_number":44078,"period_min":100.40315303356,"perigee_km":776.11596948856,"apogee_km":779.21729478272,"semimajor_km":7155.8036321356,"source":"CELESTRAK","updated_at":"2026-05-25T13:38:14.806767Z"}}}